Location: Pine Mountain Observatory
(43.7910°N, 120.9377°W)
Time: 20:04:01
(UTC-07:00)

Cosmos 1867 - Visible Passes

Search period start: 20 October 2017 00:00
Search period end: 30 October 2017 00:00
Orbit: 778 x 798 km, 65.0° (Epoch: 20 October)

Date Brightness Start Highest point End Pass type
(mag) Time Alt. Az. Time Alt. Az. Time Alt. Az.
20 Oct 6.2 19:27:40 10° NNW 19:28:33 10° NNW 19:29:26 10° N visible
21 Oct 6.0 18:54:23 10° NW 18:56:30 12° NNW 18:58:37 10° N visible
26 Oct 6.3 21:31:10 10° N 21:31:13 10° N 21:31:13 10° N visible
27 Oct 6.0 20:59:49 10° N 21:00:23 11° N 21:00:23 11° N visible
28 Oct 5.9 20:28:34 10° N 20:29:34 12° N 20:29:34 12° N visible
29 Oct 5.8 19:57:37 10° N 19:58:47 11° NNE 19:58:47 11° NNE visible
29 Oct 6.3 21:39:08 10° NNW 21:39:26 11° NNW 21:39:26 11° NNW visible
